[Iaude] MPEC H49: 2024 GQ7 [a=2.02,e=0.48,i=16.8,H=22.8]
    mpec at cfa.harvard.edu 
    mpec at cfa.harvard.edu
       
    Sat Apr 20 14:36:00 EDT 2024
    
    
  
M.P.E.C. 2024-H49                                Issued 2024 April 20, 18:34 UT
     The Minor Planet Electronic Circulars contain information on unusual
         minor planets, routine data on comets and natural satellites,
         and occasional editorial announcements.  They are published
    on behalf of Division F of the International Astronomical Union by the
          Minor Planet Center, Smithsonian Astrophysical Observatory,
                          Cambridge, MA 02138, U.S.A.
			  
             Prepared using the Tamkin Foundation Computer Network
                              MPC at CFA.HARVARD.EDU
            URL https://www.minorplanetcenter.net/    ISSN 1523-6714
                                    2024 GQ7                                    
Observations:
     K24G07Q* C2024 04 06.90306 14 51 48.18 +31 04 00.8          21.5 rVEH049O18
     K24G07Q  C2024 04 06.90956 14 51 48.34 +31 04 01.2          21.5 rVEH049O18
     K24G07Q  C2024 04 06.91605 14 51 48.53 +31 04 01.2          22.1 rVEH049O18
     K24G07Q 1C2024 04 16.33632 14 56 34.10 +30 26 28.1          21.1 GVEH049G96
     K24G07Q 1C2024 04 16.35187 14 56 34.30 +30 26 19.0          21.3 GVEH049G96
     K24G07Q  C2024 04 18.36027214 57 22.621+30 02 04.38         21.30wXEH049F52
     K24G07Q  C2024 04 18.37265014 57 22.754+30 01 54.70         21.53wXEH049F52
     K24G07Q  C2024 04 18.38503514 57 22.858+30 01 45.27         21.66wXEH049F52
     K24G07Q  C2024 04 18.39741014 57 22.940+30 01 35.79         21.81wXEH049F52
     K24G07Q DC2024 04 18.49308 14 57 21.64 +30 00 04.1                VEH049695
     K24G07Q DC2024 04 18.49777 14 57 21.69 +29 59 59.6                VEH049695
     K24G07Q DC2024 04 18.50249 14 57 21.74 +29 59 55.2                VEH049695
     K24G07Q  C2024 04 18.62594414 57 24.253+29 58 15.90         22.21GVEH049F51
     K24G07Q  C2024 04 18.62658614 57 24.242+29 58 15.35         21.45GVEH049F51
     K24G07Q KC2024 04 20.22414414 58 02.255+29 32 22.74               VEH049I52
     K24G07Q KC2024 04 20.23149214 58 02.323+29 32 14.42         20.52GVEH049V06
     K24G07Q KC2024 04 20.23288214 58 02.320+29 32 12.95         20.66GVEH049V06
     K24G07Q KC2024 04 20.23295014 58 02.323+29 32 12.88         21.01GVEH049I52
     K24G07Q KC2024 04 20.23427214 58 02.334+29 32 11.65         20.66GVEH049V06
     K24G07Q KC2024 04 20.23566614 58 02.341+29 32 10.25         20.71GVEH049V06
     K24G07Q KC2024 04 20.23604314 58 02.352+29 32 10.79               VEH049I52
     K24G07Q KC2024 04 20.23913014 58 02.352+29 32 07.26               VEH049I52
Observer details:
695 Kitt Peak.  Observer M. J. Brucker.  2.3-m f/9 reflector + CCD.
F51 Pan-STARRS 1, Haleakala.  Observers J. Herman, T. Lowe, P. Minguez, A.
    Schultz, I. Smith.  Measurers K. Chambers, T. de Boer, J. Fairlamb, H.
    Gao, M. Huber, C.-C. Lin, E. Magnier, Y. Ramanjooloo, R. Wainscoat, R.
    Weryk.  1.8-m Ritchey-Chretien + CCD.
F52 Pan-STARRS 2, Haleakala.  Observers J. Herman, T. Lowe, P. Minguez, A.
    Schultz, I. Smith.  Measurers K. Chambers, T. de Boer, J. Fairlamb, H.
    Gao, M. Huber, C.-C. Lin, E. Magnier, Y. Ramanjooloo, R. Wainscoat, R.
    Weryk.  1.8-m Ritchey-Chretien + CCD.
G96 Mt. Lemmon Survey.  Observer G. J. Leonard.  Measurers B. Gray, D. Rankin,
    F. C. Shelly.  1.5-m reflector + 10K CCD.
I52 Steward Observatory, Mt. Lemmon Station.  Observer D. C. Fuls.  Measurers
    T. Beuden, V. F. Carvajal, D. Fay, J. B. Fazekas, D. C. Fuls, A. R. Gibbs,
    A. D. Grauer, H. Groeller, J. K. Hogan, R. A. Kowalski, S. M. Larson, G.
    J. Leonard, D. Rankin, R. L. Seaman, F. C. Shelly, K. W. Wierzchos.  1.0-m
    prime focus + CCD.
O18 WFST, Lenghu.  Observers Z. Lou, Z. Q. Li, S. X. Li, Q. Y. Hai, K. Yan.
    Measurers B. Li, H. B. Zhao, Z. J. Xu, G. T. Zhaori.  2.5-m f/2.48
    reflector + CCD.
V06 Catalina Sky Survey-Kuiper.  Observer D. C. Fuls.  Measurers T. Beuden, V.
    F. Carvajal, D. Fay, J. B. Fazekas, D. C. Fuls, A. R. Gibbs, A. D. Grauer,
    H. Groeller, J. K. Hogan, R. A. Kowalski, S. M. Larson, G. J. Leonard, D.
    Rankin, R. L. Seaman, F. C. Shelly, K. W. Wierzchos.  1.55-m reflector +
    1K CCD.
Orbital elements:
2024 GQ7                                                 Earth MOID = 0.0571 AU
Epoch 2024 Mar. 31.0 TT = JDT 2460400.5                 Bell                    
M 337.98166              (2000.0)            P               Q                  
n   0.34455636     Peri.  199.83883     -0.27721434     +0.93121866             
a   2.0150966      Node    54.77458     -0.83779745     -0.11372029             
e   0.4779630      Incl.   16.83682     -0.47036970     -0.34626506             
P   2.86           H   22.86          G   0.15           U   7                  
Residuals in seconds of arc
240406 O18  0.2+  0.4-    240418 F52  0.1+  0.3-    240420 I52  0.0   1.1+
240406 O18  0.0   0.1-    240418 F52  0.0   0.2-    240420 V06  0.1+  0.0
240406 O18  0.1+  0.2-    240418 695  0.2+  0.0     240420 V06  0.1-  0.0
240416 G96  0.5-  0.0     240418 695  0.2+  0.2-    240420 V06  0.1-  0.0
240416 G96  0.3+  0.4+    240418 695  0.1+  0.1-    240420 V06  0.1-  0.0
240418 F52  0.3-  0.1-    240418 F51  0.3+  0.3-    240420 I52  0.0   1.0+
240418 F52  0.0   0.3-    240418 F51  0.1+  0.2-    240420 I52  0.3-  0.5+
Ephemeris:
2024 GQ7                 a,e,i = 2.02, 0.48, 17                  q = 1.0520
Date    TT    R. A. (2000) Decl.     Delta      r    Elong.  Phase     V
2024 03 21    14 37 52.2 +29 26 17   0.4372  1.3310   132.5    33.5    23.1
...
2024 04 05    14 50 36.2 +31 00 44   0.3176  1.2423   134.0    35.4    22.3
...
2024 04 13    14 55 06.4 +30 52 18   0.2588  1.1991   134.7    36.4    21.8
...
2024 04 19    14 57 34.6 +29 52 44   0.2166  1.1692   135.7    36.9    21.4
2024 04 20    14 57 55.7 +29 36 27   0.2097  1.1645   135.9    36.9    21.3
2024 04 21    14 58 15.9 +29 17 56   0.2029  1.1598   136.2    36.9    21.2
...
2024 04 27    15 00 02.2 +26 26 43   0.1627  1.1335   138.5    36.1    20.7
...
2024 05 05    15 02 07.1 +18 00 57   0.1125  1.1032   145.6    31.1    19.7
...
2024 05 20    15 13 40.1 -44 02 01   0.05744 1.0642   154.9    23.8    17.9
M. P. C. Staff               (C) Copyright 2024 MPC           M.P.E.C. 2024-H49
    
    
More information about the Iaude
mailing list